Farmington, NM

2:32 AM MST on February 23, 2017 (GMT -0700)
Four Corners Regional

Weather History for KFMN - February, 2013

Change the Weather History Date:

Sunday, February 3, 2013

  Actual Average Record
Temperature  
Mean Temperature 34 °F -  
Max Temperature 42 °F 44 °F 55 °F (1986)
Min Temperature 27 °F 20 °F -2 °F (2011)
Degree Days  
Heating Degree Days 30    
Moisture  
Dew Point 26 °F    
Average Humidity 72    
Maximum Humidity 88    
Minimum Humidity 45    
Precipitation  
Precipitation 0.00 in - - ()
Sea Level Pressure  
Sea Level Pressure 30.22 in    
Wind  
Wind Speed 6 mph (SSW)    
Max Wind Speed 13 mph    
Max Gust Speed -    
Visibility 10 miles    
Events      
Averages and records for this station are not official NWS values.
T = Trace of Precipitation, MM = Missing Value Source: NWS Daily Summary

Daily Weather History Graph

Daily Weather History Graph

Search for Another Location

Airport or City:

Trip Planner

Search our weather history database for the weather conditions in past years. The results will help you decide how hot, cold, wet, or windy it might be!

Date:

Astronomy

Feb. 03, 2013 Rise Set
Actual Time 7:12 AM MST 5:41 PM MST
Civil Twilight 6:45 AM MST 6:08 PM MST
Nautical Twilight 6:15 AM MST 6:39 PM MST
Astronomical Twilight 5:44 AM MST 7:09 PM MST
Moon 12:43 AM MST (2/3) 11:21 AM MST (2/3)
Length of Visible Light 11h 22m
Length of Day
10h 28m
Waning Gibbous, 48% of the Moon is Illuminated
Feb 3
Waning Gibbous
Feb 10
New
Feb 17
First Quarter
Feb 25
Full
Mar 4
Last Quarter

Hourly Weather History & Observations

Time (MST) Temp. Windchill Dew Point Humidity Pressure Visibility Wind Dir Wind Speed Gust Speed Precip Events Conditions
12:53 AM 28.0 °F 21.7 °F 24.1 °F 85% 30.38 in 10.0 mi East 5.8 mph - N/A   Clear
1:53 AM 26.1 °F 19.4 °F 23.0 °F 88% 30.37 in 10.0 mi ENE 5.8 mph - N/A   Clear
2:53 AM 25.0 °F 18.1 °F 21.9 °F 88% 30.35 in 10.0 mi ENE 5.8 mph - N/A   Clear
3:53 AM 26.1 °F 21.9 °F 23.0 °F 88% 30.33 in 10.0 mi East 3.5 mph - N/A   Clear
5:53 AM 28.0 °F 20.8 °F 24.1 °F 85% 30.31 in 10.0 mi East 6.9 mph - N/A   Clear
6:53 AM 28.0 °F 21.7 °F 24.1 °F 85% 30.29 in 10.0 mi East 5.8 mph - N/A   Clear
7:53 AM 28.9 °F 22.8 °F 25.0 °F 85% 30.29 in 10.0 mi East 5.8 mph - N/A   Clear
8:53 AM 30.0 °F 23.2 °F 26.1 °F 85% 30.29 in 10.0 mi ESE 6.9 mph - N/A   Clear
9:53 AM 33.1 °F - 27.0 °F 78% 30.29 in 10.0 mi Calm Calm - N/A   Partly Cloudy
10:53 AM 37.0 °F 34.5 °F 27.0 °F 67% 30.26 in 10.0 mi ESE 3.5 mph - N/A   Partly Cloudy
11:53 AM 39.9 °F - 27.0 °F 60% 30.23 in 10.0 mi Calm Calm - N/A   Scattered Clouds
12:53 PM 39.9 °F 37.8 °F 26.1 °F 58% 30.20 in 10.0 mi WSW 3.5 mph - N/A   Mostly Cloudy
1:53 PM 41.0 °F 36.4 °F 27.0 °F 57% 30.17 in 10.0 mi West 6.9 mph - N/A   Mostly Cloudy
2:53 PM 42.1 °F 37.7 °F 28.9 °F 60% 30.14 in 10.0 mi West 6.9 mph - N/A   Overcast
3:53 PM 42.1 °F 37.7 °F 30.0 °F 62% 30.13 in 10.0 mi West 6.9 mph - N/A   Overcast
4:53 PM 39.9 °F 32.9 °F 28.9 °F 65% 30.12 in 10.0 mi West 11.5 mph - N/A   Overcast
5:53 PM 37.9 °F 35.5 °F 27.0 °F 65% 30.13 in 10.0 mi WSW 3.5 mph - N/A   Overcast
6:53 PM 37.0 °F 30.4 °F 27.0 °F 67% 30.12 in 10.0 mi WSW 9.2 mph - N/A   Overcast
7:53 PM 36.0 °F 29.0 °F 27.0 °F 70% 30.13 in 10.0 mi WSW 9.2 mph - N/A   Overcast
8:53 PM 36.0 °F 27.5 °F 27.0 °F 70% 30.13 in 10.0 mi West 12.7 mph - N/A   Clear
9:53 PM 33.1 °F - 26.1 °F 75% 30.13 in 10.0 mi Calm Calm - N/A   Clear
10:53 PM 32.0 °F - 26.1 °F 79% 30.12 in 10.0 mi Calm Calm - N/A   Clear
11:53 PM 30.9 °F 26.2 °F 26.1 °F 82% 30.12 in 10.0 mi WSW 4.6 mph - N/A   Clear